Location: Newark
(45.9456°N, 15.4064°E)
Time: 07:23:33
(UTC+00:00)

Courier 1B Rocket - Pass Details

Date: 25 January 2020
Orbit: 920 x 1202 km, 28.2° (Epoch: 20 February)

Event Time Altitude Azimuth Distance (km) Brightness Sun altitude
Rises 14:38:20 0° 246° (WSW) 3,720 9.7 9.9°
Reaches altitude 10° 14:44:20 10° 205° (SSW) 2,686 8.7 9.1°
Maximum altitude 14:44:59 10° 199° (SSW) 2,667 8.5 9.0°
Drops below altitude 10° 14:45:38 10° 193° (SSW) 2,671 8.3 8.9°
Sets 14:51:24 0° 151° (SSE) 3,561 8.1 8.1°
